Wetterdaten: Woche 23.04.12 - 29.04.12 (KW17)
Datum Zeit Temperatur Luftfeuchte Luftdruck Niederschlag Windrichtung Sonnenschein Solar Wind
23.04.2012 00:00 3,8 C 90 % 1010,1 hPa 0,0 l/m SW 0,00 h 0 W/m 11,0 km/h (2 Bft)
23.04.2012 01:00 2,6 C 91 % 1009,8 hPa 0,0 l/m W-SW 0,00 h 0 W/m 4,3 km/h (1 Bft)
23.04.2012 02:00 2,0 C 94 % 1009,3 hPa 0,0 l/m W-SW 0,00 h 0 W/m 2,8 km/h (1 Bft)
23.04.2012 03:00 2,1 C 95 % 1009,0 hPa 0,0 l/m N 0,00 h 0 W/m 2,5 km/h (1 Bft)
23.04.2012 04:00 2,4 C 94 % 1009,0 hPa 0,0 l/m W-SW 0,00 h 0 W/m 2,5 km/h (1 Bft)
23.04.2012 05:00 3,9 C 89 % 1008,8 hPa 0,0 l/m W-SW 0,00 h 0 W/m 10,4 km/h (2 Bft)
23.04.2012 06:00 3,6 C 90 % 1008,6 hPa 0,0 l/m SW 0,00 h 12 W/m 8,6 km/h (2 Bft)
23.04.2012 07:00 3,2 C 94 % 1008,4 hPa 0,0 l/m SW 0,00 h 33 W/m 4,7 km/h (1 Bft)
23.04.2012 08:00 4,3 C 93 % 1008,4 hPa 0,0 l/m SW 0,00 h 87 W/m 8,4 km/h (2 Bft)
23.04.2012 09:00 5,4 C 91 % 1008,3 hPa 0,0 l/m SW 0,00 h 142 W/m 12,5 km/h (3 Bft)
23.04.2012 10:00 6,0 C 90 % 1008,0 hPa 0,0 l/m SW 0,00 h 163 W/m 11,7 km/h (2 Bft)
23.04.2012 11:00 7,2 C 84 % 1007,3 hPa 0,0 l/m S-SW 0,08 h 279 W/m 12,4 km/h (3 Bft)
23.04.2012 12:00 8,5 C 76 % 1006,5 hPa 0,0 l/m S-SW 0,08 h 308 W/m 14,2 km/h (3 Bft)
23.04.2012 13:00 9,3 C 70 % 1005,4 hPa 0,0 l/m W-SW 0,17 h 335 W/m 12,4 km/h (3 Bft)
23.04.2012 14:00 10,6 C 62 % 1004,2 hPa 0,0 l/m W-SW 0,25 h 439 W/m 12,2 km/h (2 Bft)
23.04.2012 15:00 12,6 C 52 % 1003,0 hPa 0,0 l/m SO 0,92 h 835 W/m 13,8 km/h (3 Bft)
23.04.2012 16:00 13,1 C 49 % 1001,9 hPa 0,0 l/m S-SW 1,00 h 610 W/m 11,6 km/h (2 Bft)
23.04.2012 17:00 13,1 C 47 % 1001,1 hPa 0,0 l/m SW 1,00 h 462 W/m 11,0 km/h (2 Bft)
23.04.2012 18:00 12,3 C 48 % 1000,5 hPa 0,0 l/m SW 0,25 h 126 W/m 3,3 km/h (1 Bft)
23.04.2012 19:00 11,6 C 52 % 999,7 hPa 0,0 l/m N 0,00 h 28 W/m 1,7 km/h (1 Bft)
23.04.2012 20:00 10,3 C 65 % 999,5 hPa 0,0 l/m SW 0,00 h 8 W/m 2,1 km/h (1 Bft)
23.04.2012 21:00 9,6 C 67 % 1000,0 hPa 0,0 l/m W-NW 0,00 h 0 W/m 10,2 km/h (2 Bft)
23.04.2012 22:00 7,8 C 80 % 1000,6 hPa 0,0 l/m W 0,00 h 0 W/m 27,2 km/h (4 Bft)
23.04.2012 23:00 6,7 C 91 % 999,8 hPa 0,4 l/m W-NW 0,00 h 0 W/m 5,8 km/h (1 Bft)
24.04.2012 00:00 6,1 C 94 % 999,0 hPa 0,0 l/m S-SO 0,00 h 0 W/m 1,6 km/h (1 Bft)
24.04.2012 01:00 5,8 C 96 % 998,8 hPa 0,0 l/m W-SW 0,00 h 0 W/m 7,4 km/h (2 Bft)
24.04.2012 02:00 6,3 C 95 % 999,0 hPa 0,2 l/m W-SW 0,00 h 0 W/m 10,6 km/h (2 Bft)
24.04.2012 03:00 6,3 C 93 % 998,8 hPa 0,0 l/m W-SW 0,00 h 0 W/m 11,1 km/h (2 Bft)
24.04.2012 04:00 5,6 C 91 % 998,5 hPa 1,0 l/m SW 0,00 h 0 W/m 9,4 km/h (2 Bft)
24.04.2012 05:00 5,1 C 95 % 997,8 hPa 1,0 l/m S-SW 0,00 h 0 W/m 8,3 km/h (2 Bft)
24.04.2012 06:00 4,7 C 96 % 997,7 hPa 2,2 l/m S-SW 0,00 h 5 W/m 9,4 km/h (2 Bft)
24.04.2012 07:00 4,4 C 96 % 997,2 hPa 0,4 l/m S-SW 0,00 h 14 W/m 9,5 km/h (2 Bft)
24.04.2012 08:00 4,4 C 96 % 997,1 hPa 0,2 l/m S 0,00 h 38 W/m 6,0 km/h (2 Bft)
24.04.2012 09:00 4,9 C 95 % 997,4 hPa 0,0 l/m S-SW 0,00 h 69 W/m 9,0 km/h (2 Bft)
24.04.2012 10:00 4,9 C 94 % 997,7 hPa 0,0 l/m S 0,00 h 88 W/m 9,7 km/h (2 Bft)
24.04.2012 11:00 5,6 C 93 % 998,1 hPa 0,0 l/m SW 0,00 h 114 W/m 9,5 km/h (2 Bft)
24.04.2012 12:00 6,4 C 92 % 998,3 hPa 0,0 l/m SW 0,00 h 161 W/m 11,8 km/h (2 Bft)
24.04.2012 13:00 7,2 C 87 % 998,1 hPa 0,0 l/m SW 0,00 h 236 W/m 20,0 km/h (4 Bft)
24.04.2012 14:00 7,9 C 84 % 998,1 hPa 0,0 l/m SW 0,00 h 254 W/m 21,6 km/h (4 Bft)
24.04.2012 15:00 8,6 C 81 % 998,1 hPa 0,0 l/m SW 0,50 h 394 W/m 20,8 km/h (4 Bft)
24.04.2012 16:00 7,7 C 86 % 998,7 hPa 2,0 l/m W-SW 0,17 h 129 W/m 25,6 km/h (4 Bft)
24.04.2012 17:00 7,4 C 88 % 999,4 hPa 0,2 l/m W 0,42 h 295 W/m 25,2 km/h (4 Bft)
24.04.2012 18:00 8,0 C 83 % 1000,0 hPa 0,0 l/m W-SW 0,08 h 74 W/m 24,4 km/h (4 Bft)
24.04.2012 19:00 7,3 C 82 % 1000,8 hPa 0,0 l/m W-SW 0,08 h 61 W/m 27,2 km/h (4 Bft)
24.04.2012 20:00 6,5 C 84 % 1001,7 hPa 0,0 l/m W-SW 0,00 h 12 W/m 23,7 km/h (4 Bft)
24.04.2012 21:00 5,8 C 87 % 1002,7 hPa 0,0 l/m W-SW 0,00 h 0 W/m 20,5 km/h (4 Bft)
24.04.2012 22:00 5,8 C 86 % 1003,7 hPa 0,0 l/m W-SW 0,00 h 0 W/m 24,5 km/h (4 Bft)
24.04.2012 23:00 5,9 C 88 % 1004,3 hPa 0,0 l/m W-SW 0,00 h 0 W/m 24,4 km/h (4 Bft)
25.04.2012 00:00 5,9 C 86 % 1005,0 hPa 0,0 l/m W-SW 0,00 h 0 W/m 23,3 km/h (4 Bft)
25.04.2012 01:00 5,7 C 85 % 1005,8 hPa 0,0 l/m W-SW 0,00 h 0 W/m 24,0 km/h (4 Bft)
25.04.2012 02:00 5,3 C 86 % 1006,3 hPa 0,0 l/m W 0,00 h 0 W/m 21,4 km/h (4 Bft)
25.04.2012 03:00 4,7 C 88 % 1006,5 hPa 0,0 l/m W-SW 0,00 h 0 W/m 19,7 km/h (3 Bft)
25.04.2012 04:00 4,3 C 90 % 1006,5 hPa 0,0 l/m W-SW 0,00 h 0 W/m 14,2 km/h (3 Bft)
25.04.2012 05:00 4,2 C 90 % 1006,4 hPa 0,0 l/m SW 0,00 h 0 W/m 9,9 km/h (2 Bft)
25.04.2012 06:00 3,6 C 91 % 1006,4 hPa 0,0 l/m SW 0,00 h 14 W/m 10,1 km/h (2 Bft)
25.04.2012 07:00 4,7 C 89 % 1006,3 hPa 0,0 l/m SW 0,42 h 115 W/m 7,2 km/h (2 Bft)
25.04.2012 08:00 6,9 C 81 % 1006,2 hPa 0,0 l/m SW 1,00 h 307 W/m 8,9 km/h (2 Bft)
25.04.2012 09:00 8,9 C 71 % 1006,2 hPa 0,0 l/m SW 1,00 h 480 W/m 10,7 km/h (2 Bft)
25.04.2012 10:00 10,7 C 62 % 1005,7 hPa 0,0 l/m S-SO 1,00 h 614 W/m 9,9 km/h (2 Bft)
25.04.2012 11:00 12,1 C 53 % 1005,1 hPa 0,0 l/m S-SW 1,00 h 704 W/m 11,2 km/h (2 Bft)
25.04.2012 12:00 13,8 C 51 % 1004,4 hPa 0,0 l/m O-SO 1,00 h 822 W/m 8,6 km/h (2 Bft)
25.04.2012 13:00 15,2 C 45 % 1003,8 hPa 0,0 l/m SW 1,00 h 806 W/m 12,5 km/h (3 Bft)
25.04.2012 14:00 15,9 C 41 % 1003,3 hPa 0,0 l/m SW 0,50 h 461 W/m 12,3 km/h (3 Bft)
25.04.2012 15:00 16,9 C 38 % 1002,8 hPa 0,0 l/m SW 0,58 h 574 W/m 12,4 km/h (3 Bft)
25.04.2012 16:00 17,3 C 37 % 1002,8 hPa 0,0 l/m SW 0,67 h 389 W/m 16,9 km/h (3 Bft)
25.04.2012 17:00 16,5 C 40 % 1003,0 hPa 0,0 l/m W-SW 0,00 h 158 W/m 11,2 km/h (2 Bft)
25.04.2012 18:00 15,7 C 42 % 1003,0 hPa 0,0 l/m W 0,00 h 83 W/m 6,1 km/h (2 Bft)
25.04.2012 19:00 14,9 C 47 % 1002,4 hPa 0,0 l/m W-SW 0,00 h 40 W/m 2,4 km/h (1 Bft)
25.04.2012 20:00 13,2 C 56 % 1002,3 hPa 0,0 l/m SW 0,00 h 11 W/m 2,3 km/h (1 Bft)
25.04.2012 21:00 11,7 C 60 % 1002,6 hPa 0,0 l/m SW 0,00 h 0 W/m 4,0 km/h (1 Bft)
25.04.2012 22:00 10,6 C 62 % 1002,6 hPa 0,0 l/m S-SO 0,00 h 0 W/m 4,8 km/h (1 Bft)
25.04.2012 23:00 9,0 C 69 % 1002,9 hPa 0,0 l/m N 0,00 h 0 W/m 0,1 km/h (0 Bft)
26.04.2012 00:00 8,3 C 74 % 1002,8 hPa 0,0 l/m N 0,00 h 0 W/m 0,0 km/h (0 Bft)
26.04.2012 01:00 7,5 C 76 % 1002,6 hPa 0,0 l/m S 0,00 h 0 W/m 1,5 km/h (1 Bft)
26.04.2012 02:00 9,1 C 66 % 1002,5 hPa 0,0 l/m S 0,00 h 0 W/m 6,7 km/h (2 Bft)
26.04.2012 03:00 9,5 C 63 % 1002,7 hPa 0,0 l/m S-SW 0,00 h 0 W/m 5,1 km/h (1 Bft)
26.04.2012 04:00 9,6 C 62 % 1003,0 hPa 0,0 l/m S-SW 0,00 h 0 W/m 10,2 km/h (2 Bft)
26.04.2012 05:00 10,2 C 61 % 1003,4 hPa 0,0 l/m SW 0,00 h 0 W/m 8,9 km/h (2 Bft)
26.04.2012 06:00 10,6 C 59 % 1004,2 hPa 0,0 l/m N 0,00 h 19 W/m 9,9 km/h (2 Bft)
26.04.2012 07:00 10,3 C 66 % 1004,9 hPa 0,0 l/m N 0,33 h 100 W/m 2,0 km/h (1 Bft)
26.04.2012 08:00 13,2 C 59 % 1005,5 hPa 0,0 l/m N 0,33 h 207 W/m 2,5 km/h (1 Bft)
26.04.2012 09:00 16,2 C 47 % 1005,9 hPa 0,0 l/m N 1,00 h 509 W/m 9,1 km/h (2 Bft)
26.04.2012 10:00 17,8 C 41 % 1006,5 hPa 0,0 l/m W 1,00 h 643 W/m 14,2 km/h (3 Bft)
26.04.2012 11:00 19,1 C 40 % 1006,7 hPa 0,0 l/m W-SW 0,83 h 712 W/m 12,9 km/h (3 Bft)
26.04.2012 12:00 20,7 C 36 % 1006,7 hPa 0,0 l/m SW 1,00 h 856 W/m 23,9 km/h (4 Bft)
26.04.2012 13:00 21,7 C 34 % 1006,7 hPa 0,0 l/m S-SW 1,00 h 884 W/m 28,8 km/h (5 Bft)
26.04.2012 14:00 22,4 C 33 % 1006,5 hPa 0,0 l/m SW 1,00 h 846 W/m 32,2 km/h (5 Bft)
26.04.2012 15:00 22,9 C 31 % 1006,8 hPa 0,0 l/m SW 1,00 h 778 W/m 31,1 km/h (5 Bft)
26.04.2012 16:00 23,2 C 30 % 1007,0 hPa 0,0 l/m W-SW 1,00 h 664 W/m 22,5 km/h (4 Bft)
26.04.2012 17:00 22,9 C 33 % 1007,2 hPa 0,0 l/m SW 1,00 h 471 W/m 19,3 km/h (3 Bft)
26.04.2012 18:00 22,0 C 33 % 1007,3 hPa 0,0 l/m SW 1,00 h 310 W/m 18,1 km/h (3 Bft)
26.04.2012 19:00 20,0 C 35 % 1007,6 hPa 0,0 l/m SW 0,50 h 93 W/m 15,4 km/h (3 Bft)
26.04.2012 20:00 17,6 C 37 % 1008,1 hPa 0,0 l/m S-SW 0,00 h 10 W/m 13,7 km/h (3 Bft)
26.04.2012 21:00 15,3 C 45 % 1008,7 hPa 0,0 l/m S-SW 0,00 h 0 W/m 4,0 km/h (1 Bft)
26.04.2012 22:00 13,3 C 52 % 1009,3 hPa 0,0 l/m W-SW 0,00 h 0 W/m 2,7 km/h (1 Bft)
26.04.2012 23:00 12,9 C 56 % 1010,0 hPa 0,0 l/m N 0,00 h 0 W/m 6,5 km/h (2 Bft)
27.04.2012 00:00 11,4 C 72 % 1010,7 hPa 0,0 l/m N-NW 0,00 h 0 W/m 6,7 km/h (2 Bft)
27.04.2012 01:00 10,2 C 77 % 1011,6 hPa 0,0 l/m N-NW 0,00 h 0 W/m 6,7 km/h (2 Bft)
27.04.2012 02:00 9,0 C 82 % 1012,0 hPa 0,0 l/m N-NW 0,00 h 0 W/m 6,4 km/h (2 Bft)
27.04.2012 03:00 7,8 C 86 % 1012,3 hPa 0,0 l/m N 0,00 h 0 W/m 0,4 km/h (0 Bft)
27.04.2012 04:00 6,8 C 90 % 1012,3 hPa 0,0 l/m N 0,00 h 0 W/m 1,5 km/h (1 Bft)
27.04.2012 05:00 6,6 C 92 % 1012,5 hPa 0,0 l/m N-NW 0,00 h 0 W/m 4,5 km/h (1 Bft)
27.04.2012 06:00 6,7 C 92 % 1012,8 hPa 0,0 l/m N-NW 0,00 h 16 W/m 4,1 km/h (1 Bft)
27.04.2012 07:00 8,3 C 87 % 1013,0 hPa 0,0 l/m N-NW 0,50 h 124 W/m 6,4 km/h (2 Bft)
27.04.2012 08:00 11,2 C 77 % 1013,0 hPa 0,0 l/m N-NO 1,00 h 306 W/m 7,5 km/h (2 Bft)
27.04.2012 09:00 14,0 C 70 % 1013,5 hPa 0,0 l/m N-NO 1,00 h 480 W/m 8,7 km/h (2 Bft)
27.04.2012 10:00 16,4 C 61 % 1013,6 hPa 0,0 l/m N-NO 1,00 h 643 W/m 9,7 km/h (2 Bft)
27.04.2012 11:00 18,2 C 52 % 1014,2 hPa 0,0 l/m O-NO 0,75 h 642 W/m 7,6 km/h (2 Bft)
27.04.2012 12:00 20,1 C 49 % 1014,5 hPa 0,0 l/m NO 0,92 h 787 W/m 10,9 km/h (2 Bft)
27.04.2012 13:00 22,0 C 43 % 1014,2 hPa 0,0 l/m O-SO 0,92 h 806 W/m 9,1 km/h (2 Bft)
27.04.2012 14:00 23,1 C 40 % 1014,0 hPa 0,0 l/m O-SO 1,00 h 741 W/m 7,6 km/h (2 Bft)
27.04.2012 15:00 23,5 C 39 % 1013,3 hPa 0,0 l/m O 0,50 h 468 W/m 10,3 km/h (2 Bft)
27.04.2012 16:00 24,7 C 40 % 1013,0 hPa 0,0 l/m O-SO 1,00 h 596 W/m 14,1 km/h (3 Bft)
27.04.2012 17:00 24,2 C 41 % 1012,7 hPa 0,0 l/m O-NO 0,92 h 368 W/m 15,8 km/h (3 Bft)
27.04.2012 18:00 23,3 C 43 % 1012,5 hPa 0,0 l/m O-NO 0,17 h 124 W/m 11,4 km/h (2 Bft)
27.04.2012 19:00 21,3 C 50 % 1012,4 hPa 0,0 l/m N-NO 0,08 h 54 W/m 12,8 km/h (3 Bft)
27.04.2012 20:00 19,8 C 55 % 1012,5 hPa 0,0 l/m NO 0,25 h 18 W/m 9,1 km/h (2 Bft)
27.04.2012 21:00 17,1 C 66 % 1012,9 hPa 0,0 l/m N 0,00 h 0 W/m 2,3 km/h (1 Bft)
27.04.2012 22:00 15,3 C 73 % 1012,9 hPa 0,0 l/m NO 0,00 h 0 W/m 1,9 km/h (1 Bft)
27.04.2012 23:00 15,1 C 73 % 1012,9 hPa 0,0 l/m N-NW 0,00 h 0 W/m 7,2 km/h (2 Bft)
28.04.2012 00:00 13,8 C 76 % 1013,0 hPa 0,0 l/m N-NW 0,00 h 0 W/m 0,8 km/h (0 Bft)
28.04.2012 01:00 12,3 C 83 % 1013,1 hPa 0,0 l/m N 0,00 h 0 W/m 0,3 km/h (0 Bft)
28.04.2012 02:00 11,3 C 86 % 1012,9 hPa 0,0 l/m N 0,00 h 0 W/m 0,0 km/h (0 Bft)
28.04.2012 03:00 10,1 C 90 % 1012,6 hPa 0,0 l/m N 0,00 h 0 W/m 0,0 km/h (0 Bft)
28.04.2012 04:00 9,8 C 91 % 1012,5 hPa 0,0 l/m N 0,00 h 0 W/m 1,6 km/h (1 Bft)
28.04.2012 05:00 9,0 C 91 % 1012,5 hPa 0,0 l/m N 0,00 h 0 W/m 0,0 km/h (0 Bft)
28.04.2012 06:00 8,6 C 91 % 1012,4 hPa 0,0 l/m N 0,08 h 17 W/m 0,5 km/h (0 Bft)
28.04.2012 07:00 10,9 C 85 % 1012,6 hPa 0,0 l/m N-NW 0,50 h 125 W/m 4,4 km/h (1 Bft)
28.04.2012 08:00 14,9 C 73 % 1012,3 hPa 0,0 l/m N-NW 1,00 h 315 W/m 3,2 km/h (1 Bft)
28.04.2012 09:00 18,7 C 59 % 1012,1 hPa 0,0 l/m N-NW 1,00 h 485 W/m 4,8 km/h (1 Bft)
28.04.2012 10:00 22,9 C 44 % 1011,7 hPa 0,0 l/m N-NW 1,00 h 616 W/m 4,9 km/h (1 Bft)
28.04.2012 11:00 26,2 C 31 % 1011,1 hPa 0,0 l/m SW 1,00 h 792 W/m 18,8 km/h (3 Bft)
28.04.2012 12:00 27,7 C 25 % 1010,4 hPa 0,0 l/m SW 1,00 h 852 W/m 30,3 km/h (5 Bft)
28.04.2012 13:00 28,4 C 22 % 1009,8 hPa 0,0 l/m SW 1,00 h 883 W/m 38,2 km/h (5 Bft)
28.04.2012 14:00 28,9 C 21 % 1009,3 hPa 0,0 l/m SW 1,00 h 858 W/m 36,9 km/h (5 Bft)
28.04.2012 15:00 29,1 C 21 % 1008,6 hPa 0,0 l/m SW 1,00 h 779 W/m 29,6 km/h (5 Bft)
28.04.2012 16:00 28,9 C 21 % 1008,1 hPa 0,0 l/m SW 1,00 h 655 W/m 26,9 km/h (4 Bft)
28.04.2012 17:00 28,2 C 21 % 1007,6 hPa 0,0 l/m SW 1,00 h 508 W/m 30,2 km/h (5 Bft)
28.04.2012 18:00 27,0 C 23 % 1007,1 hPa 0,0 l/m SW 1,00 h 293 W/m 25,9 km/h (4 Bft)
28.04.2012 19:00 24,7 C 27 % 1006,8 hPa 0,0 l/m SW 0,50 h 79 W/m 17,3 km/h (3 Bft)
28.04.2012 20:00 21,8 C 34 % 1006,7 hPa 0,0 l/m S-SW 0,00 h 11 W/m 5,4 km/h (1 Bft)
28.04.2012 21:00 18,2 C 46 % 1006,7 hPa 0,0 l/m N 0,00 h 0 W/m 0,7 km/h (0 Bft)
28.04.2012 22:00 16,4 C 50 % 1006,0 hPa 0,0 l/m N 0,00 h 0 W/m 1,2 km/h (1 Bft)
28.04.2012 23:00 14,7 C 58 % 1005,8 hPa 0,0 l/m N 0,00 h 0 W/m 0,5 km/h (0 Bft)
29.04.2012 00:00 13,7 C 61 % 1004,9 hPa 0,0 l/m N 0,00 h 0 W/m 0,5 km/h (0 Bft)
29.04.2012 01:00 13,8 C 60 % 1004,3 hPa 0,0 l/m N 0,00 h 0 W/m 0,9 km/h (0 Bft)
29.04.2012 02:00 14,0 C 58 % 1003,9 hPa 0,0 l/m W-SW 0,00 h 0 W/m 2,8 km/h (1 Bft)
29.04.2012 03:00 15,1 C 52 % 1003,1 hPa 0,0 l/m S-SW 0,00 h 0 W/m 4,4 km/h (1 Bft)
29.04.2012 04:00 17,9 C 42 % 1002,2 hPa 0,0 l/m S-SW 0,00 h 0 W/m 10,8 km/h (2 Bft)
29.04.2012 05:00 18,1 C 42 % 1002,1 hPa 0,0 l/m S 0,00 h 0 W/m 6,2 km/h (2 Bft)
29.04.2012 06:00 16,2 C 50 % 1001,9 hPa 0,0 l/m S-SO 0,00 h 7 W/m 2,3 km/h (1 Bft)
29.04.2012 07:00 17,0 C 48 % 1001,8 hPa 0,0 l/m O-SO 0,00 h 14 W/m 7,1 km/h (2 Bft)
29.04.2012 08:00 16,6 C 53 % 1001,6 hPa 0,0 l/m N 0,00 h 57 W/m 2,0 km/h (1 Bft)
29.04.2012 09:00 17,6 C 58 % 1002,3 hPa 0,0 l/m N 0,00 h 126 W/m 1,9 km/h (1 Bft)
29.04.2012 10:00 21,4 C 39 % 1002,7 hPa 0,0 l/m S-SO 0,00 h 151 W/m 22,2 km/h (4 Bft)
29.04.2012 11:00 22,5 C 38 % 1003,4 hPa 0,0 l/m SW 0,00 h 229 W/m 22,7 km/h (4 Bft)
29.04.2012 12:00 23,2 C 35 % 1003,4 hPa 0,0 l/m W 0,08 h 404 W/m 30,4 km/h (5 Bft)
29.04.2012 13:00 23,7 C 34 % 1003,7 hPa 0,0 l/m W-SW 0,58 h 447 W/m 35,0 km/h (5 Bft)
29.04.2012 14:00 24,6 C 31 % 1004,4 hPa 0,0 l/m SW 0,92 h 570 W/m 37,1 km/h (5 Bft)
29.04.2012 15:00 24,2 C 31 % 1004,7 hPa 0,0 l/m SW 0,25 h 317 W/m 24,8 km/h (4 Bft)
29.04.2012 16:00 22,9 C 33 % 1005,1 hPa 0,0 l/m S-SW 0,00 h 192 W/m 22,7 km/h (4 Bft)
29.04.2012 17:00 22,4 C 33 % 1005,5 hPa 0,0 l/m SW 0,17 h 207 W/m 18,4 km/h (3 Bft)
29.04.2012 18:00 22,4 C 32 % 1005,9 hPa 0,0 l/m SW 0,75 h 272 W/m 25,7 km/h (4 Bft)
29.04.2012 19:00 21,5 C 31 % 1006,4 hPa 0,0 l/m SW 0,58 h 120 W/m 22,9 km/h (4 Bft)
29.04.2012 20:00 19,5 C 33 % 1007,2 hPa 0,0 l/m SW 0,08 h 13 W/m 10,9 km/h (2 Bft)
29.04.2012 21:00 18,0 C 35 % 1008,5 hPa 0,0 l/m W 0,00 h 0 W/m 9,9 km/h (2 Bft)
29.04.2012 22:00 16,4 C 49 % 1009,7 hPa 0,0 l/m NW 0,00 h 0 W/m 12,1 km/h (2 Bft)
29.04.2012 23:00 13,8 C 69 % 1010,6 hPa 0,0 l/m N 0,00 h 0 W/m 12,3 km/h (3 Bft)
Min-Datum _ 23.04.12 28.04.12 24.04.12 - - - - 23.04.12
_ Min-Zeit 01:55 15:00 07:30 - - - - 01:40
Minimum _ 1,9 C 19 % 996,9 hPa - - - - 0,0 km/h (0 Bft)
Max-Datum _ 28.04.12 24.04.12 27.04.12 24.04.12 - 23.04.12 23.04.12 28.04.12
_ Max-Zeit 14:40 01:05 11:45 06:25 - 11:55 14:50 13:55
Maximum _ 29,3 C 96 % 1014,8 hPa 2,2 l/m - 0,08 h 993 W/m 46,7 km/h
SW (6 Bft)
Durchschnitt _ 13,3 C 63 % 1006,1 hPa #7,6 l/m SW #49:40 h 334 W/m 11,7 km/h (2 Bft)